[Iaude] MPEC V159: 2023 VC5 [a=2.29,e=0.47,i=4.9,H=23.8]
    mpec at marsden.cfa.harvard.edu 
    mpec at marsden.cfa.harvard.edu
       
    Fri Nov 10 01:48:00 EST 2023
    
    
  
M.P.E.C. 2023-V159                            Issued 2023 November 10, 06:46 UT
     The Minor Planet Electronic Circulars contain information on unusual
         minor planets, routine data on comets and natural satellites,
         and occasional editorial announcements.  They are published
    on behalf of Division F of the International Astronomical Union by the
          Minor Planet Center, Smithsonian Astrophysical Observatory,
                          Cambridge, MA 02138, U.S.A.
			  
             Prepared using the Tamkin Foundation Computer Network
                              MPC at CFA.HARVARD.EDU
            URL https://www.minorplanetcenter.net/    ISSN 1523-6714
                                    2023 VC5                                    
Observations:
     K23V05C* C2023 11 08.25677503 30 56.178+38 15 29.05         22.19GVEV159V00
     K23V05C  C2023 11 08.26227903 30 56.531+38 15 24.30         22.02GVEV159V00
     K23V05C  C2023 11 08.26778003 30 56.876+38 15 19.51         21.95GVEV159V00
     K23V05C  C2023 11 08.27328403 30 57.200+38 15 14.76         22.13GVEV159V00
     K23V05C KC2023 11 08.36316703 31 02.554+38 13 53.36         22.37GVEV159V06
     K23V05C KC2023 11 08.36793403 31 02.842+38 13 48.65         22.15GVEV159V06
     K23V05C KC2023 11 08.37270203 31 03.140+38 13 44.51         21.09GVEV159V06
     K23V05C KC2023 11 08.37747003 31 03.410+38 13 39.54         21.98GVEV159V06
     K23V05C KC2023 11 09.19960803 32 06.400+38 00 54.50         22.50GVEV159V06
     K23V05C KC2023 11 09.20437503 32 06.698+38 00 51.26         22.51GVEV159V06
     K23V05C KC2023 11 09.20914203 32 06.979+38 00 47.38         21.65GVEV159V06
     K23V05C KC2023 11 09.21390603 32 07.267+38 00 42.88         22.14GVEV159V06
     K23V05C KC2023 11 10.22656 03 33 18.85 +37 44 37.9          22.4 RVEV159291
     K23V05C KC2023 11 10.24101 03 33 19.68 +37 44 24.6          21.7 RVEV159291
     K23V05C KC2023 11 10.25546 03 33 20.44 +37 44 11.8          22.2 RVEV159291
Observer details:
291 LPL/Spacewatch II.  Observer T. H. Bressi.  1.8-m f/2.7 reflector + CCD.
V00 Kitt Peak-Bok.  Observer K. W. Wierzchos.  Measurers M. J. Brucker, C. E.
    Woodward, D. Fay, J. B. Fazekas, D. C. Fuls, A. R. Gibbs, H. Groeller, J.
    K. Hogan, R. A. Kowalski, S. M. Larson, C. Lejoly, G. J. Leonard, R. A.
    Mastaler, R. S. McMillan, D. Rankin, R. L. Seaman, A. Serrano, F. C.
    Shelly, K. W. Wierzchos.  2.25-m reflector + 4x4K mosaic CCD.
V06 Catalina Sky Survey-Kuiper.  Observer H. Groeller.  Measurers E. C.
    Beshore, D. Fay, J. B. Fazekas, D. C. Fuls, A. R. Gibbs, A. D. Grauer, H.
    Groeller, J. K. Hogan, R. A. Kowalski, S. M. Larson, G. J. Leonard, D.
    Rankin, R. L. Seaman, F. C. Shelly, K. W. Wierzchos.  1.55-m reflector +
    1K CCD.
Orbital elements:
2023 VC5                                                 Earth MOID = 0.2265 AU
Epoch 2023 Sept. 13.0 TT = JDT 2460200.5                MPC                     
M 351.27736              (2000.0)            P               Q                  
n   0.28413687     Peri.  104.80177     +0.90064644     -0.42638042             
a   2.2914883      Node   280.49431     +0.35864079     +0.83833094             
e   0.4745088      Incl.    4.89363     +0.24538290     +0.33970719             
P   3.47           H   23.86          G   0.15           U   9                  
Residuals in seconds of arc
231108 V00  0.1-  0.0     231108 V06  0.1-  0.0     231109 V06  0.1-  0.2+
231108 V00  0.1+  0.0     231108 V06  0.0   0.3+    231109 V06  0.2-  0.1-
231108 V00  0.2+  0.0     231108 V06  0.2-  0.1-    231110 291  0.6+  0.4+
231108 V00  0.0   0.0     231109 V06  0.1-  0.9-    231110 291  0.8+  0.3+
231108 V06  0.1-  0.2+    231109 V06  0.0   0.0     231110 291  0.2+  0.8+
Ephemeris:
2023 VC5                 a,e,i = 2.29, 0.47, 5                   q = 1.2042
Date    TT    R. A. (2000) Decl.     Delta      r    Elong.  Phase     V
2023 10 11    02 32 57.3 +39 54 35   0.2511  1.2045   141.2    31.3    22.6
...
2023 10 26    03 09 10.7 +40 33 56   0.2482  1.2114   147.7    26.0    22.4
...
2023 11 03    03 23 33.2 +39 26 18   0.2543  1.2238   152.7    21.8    22.4
...
2023 11 09    03 31 50.2 +38 04 04   0.2627  1.2369   157.0    18.2    22.4
2023 11 10    03 33 01.6 +37 48 17   0.2645  1.2393   157.7    17.6    22.4
2023 11 11    03 34 10.1 +37 31 59   0.2664  1.2419   158.5    17.0    22.4
...
2023 11 17    03 40 07.5 +35 45 46   0.2799  1.2589   162.8    13.5    22.4
...
2023 11 25    03 46 24.7 +33 12 15   0.3046  1.2859   167.0     9.9    22.5
...
2023 12 10    03 56 33.8 +28 39 54   0.3740  1.3478   163.6    11.9    23.1
A. U. Tomatic                (C) Copyright 2023 MPC           M.P.E.C. 2023-V159
    
    
More information about the Iaude
mailing list